Change the Weather History Date:

Thursday, March 7, 2013

  Actual Average Record
Temperature  
Mean Temperature 32 °F 39 °F  
Max Temperature 35 °F 48 °F 80 °F (1974)
Min Temperature 28 °F 30 °F 7 °F (1989)
Degree Days  
Heating Degree Days 33 26  
Month to date heating degree days 245 189  
Since 1 July heating degree days 4208 4393  
Cooling Degree Days 0 0  
Month to date cooling degree days 0 0  
Year to date cooling degree days 0 0  
Moisture  
Dew Point 26 °F    
Average Humidity 77    
Maximum Humidity 85    
Minimum Humidity 69    
Precipitation  
Precipitation 0.00 in 0.06 in 1.02 in (1978)
Month to date precipitation 0.11 0.41  
Year to date precipitation 6.56 4.39  
Sea Level Pressure  
Sea Level Pressure 30.39 in    
Wind  
Wind Speed 3 mph (North)    
Max Wind Speed 9 mph    
Max Gust Speed 12 mph    
Visibility 9 miles    
Events      
T = Trace of Precipitation, MM = Missing Value Source: NWS Daily Summary

Daily Weather History Graph

Daily Weather History Graph

Search for Another Location

Airport or City:

Trip Planner

Search our weather history database for the weather conditions in past years. The results will help you decide how hot, cold, wet, or windy it might be!

Date:

Astronomy

Mar. 07, 2013 Rise Set
Actual Time 6:16 AM CST 5:52 PM CST
Civil Twilight 5:49 AM CST 6:18 PM CST
Nautical Twilight 5:18 AM CST 6:50 PM CST
Astronomical Twilight 4:47 AM CST 7:21 PM CST
Moon 3:15 AM CST (3/7) 1:40 PM CST (3/7)
Length of Visible Light 12h 29m
Length of Day
11h 35m
Waning Crescent, 20% of the Moon is Illuminated
Mar 7
Waning Crescent
Mar 11
New
Mar 19
First Quarter
Mar 27
Full
Apr 2
Last Quarter

Hourly Weather History & Observations

Time (CST) Temp. Windchill Dew Point Humidity Pressure Visibility Wind Dir Wind Speed Gust Speed Precip Events Conditions
12:27 AM 28.4 °F 21.2 °F 24.8 °F 86% 30.32 in 10.0 mi NW 6.9 mph - N/A   Overcast
12:53 AM 28.0 °F 21.7 °F 25.0 °F 88% 30.36 in 9.0 mi NW 5.8 mph - N/A   Overcast
1:53 AM 28.0 °F 21.7 °F 25.0 °F 88% 30.36 in 9.0 mi NW 5.8 mph - N/A   Overcast
2:53 AM 28.0 °F 20.0 °F 25.0 °F 88% 30.37 in 9.0 mi NW 8.1 mph - N/A   Overcast
3:53 AM 28.0 °F 20.0 °F 25.0 °F 88% 30.37 in 9.0 mi NNW 8.1 mph - N/A   Overcast
4:53 AM 28.0 °F 21.7 °F 25.0 °F 88% 30.38 in 8.0 mi NNW 5.8 mph - N/A   Overcast
5:53 AM 28.0 °F 21.7 °F 25.0 °F 88% 30.39 in 8.0 mi NNW 5.8 mph - N/A   Overcast
6:53 AM 28.0 °F 22.8 °F 25.0 °F 88% 30.39 in 6.0 mi NNW 4.6 mph - N/A   Overcast
7:53 AM 28.0 °F 21.7 °F 25.0 °F 88% 30.42 in 7.0 mi NNW 5.8 mph - N/A   Overcast
8:53 AM 28.9 °F - 25.0 °F 85% 30.43 in 7.0 mi Calm Calm - N/A   Overcast
9:53 AM 30.9 °F - 26.1 °F 82% 30.43 in 7.0 mi Calm Calm - N/A   Overcast
10:53 AM 32.0 °F - 27.0 °F 82% 30.44 in 8.0 mi Calm Calm - N/A   Overcast
11:53 AM 33.1 °F - 26.1 °F 75% 30.42 in 10.0 mi Calm Calm - N/A   Overcast
12:53 PM 34.0 °F - 25.0 °F 70% 30.40 in 10.0 mi Calm Calm - N/A   Overcast
1:53 PM 34.0 °F - 26.1 °F 73% 30.39 in 10.0 mi Calm Calm - N/A   Overcast
2:53 PM 34.0 °F 31.0 °F 25.0 °F 70% 30.39 in 10.0 mi Variable 3.5 mph - N/A   Overcast
3:53 PM 35.1 °F - 26.1 °F 70% 30.40 in 10.0 mi Calm Calm - N/A   Overcast
4:53 PM 34.0 °F 28.8 °F 26.1 °F 73% 30.39 in 10.0 mi NE 5.8 mph - N/A   Overcast
5:53 PM 34.0 °F 31.0 °F 27.0 °F 75% 30.40 in 10.0 mi East 3.5 mph - N/A   Overcast
6:53 PM 33.1 °F 28.7 °F 26.1 °F 75% 30.40 in 10.0 mi SE 4.6 mph - N/A   Overcast
7:53 PM 32.0 °F 27.5 °F 26.1 °F 79% 30.40 in 10.0 mi ESE 4.6 mph - N/A   Overcast
8:53 PM 32.0 °F 28.7 °F 26.1 °F 79% 30.40 in 10.0 mi ESE 3.5 mph - N/A   Overcast
9:53 PM 30.9 °F 27.5 °F 25.0 °F 79% 30.40 in 10.0 mi East 3.5 mph - N/A   Overcast
10:53 PM 28.9 °F 25.2 °F 25.0 °F 85% 30.41 in 10.0 mi ENE 3.5 mph - N/A   Scattered Clouds
11:53 PM 30.0 °F - 26.1 °F 85% 30.41 in 10.0 mi Calm Calm - N/A   Clear